Weather History for Marathon, FL

Change the Weather History Date:

Monday, October 29, 2012

  Actual Average Record
Temperature  
Mean Temperature 73 °F 78 °F  
Max Temperature 76 °F 83 °F 89 °F (2002)
Min Temperature 70 °F 74 °F 58 °F (2008)
Degree Days  
Heating Degree Days 0 0  
Month to date heating degree days 0 0  
Since 1 July heating degree days 0 0  
Cooling Degree Days 8 13  
Month to date cooling degree days 502 459  
Year to date cooling degree days 4745 4413  
Growing Degree Days 22 (Base 50)    
Moisture  
Dew Point 53 °F    
Average Humidity 50    
Maximum Humidity 57    
Minimum Humidity 43    
Precipitation  
Precipitation 0.00 in 0.13 in 0.24 in (2010)
Month to date precipitation 3.67 4.52  
Year to date precipitation 43.80 41.07  
Snow  
Snow 0.00 in - - ()
Month to date snowfall 0.0  
Since 1 July snowfall 0.0  
Since 1 September snowfall 0.0  
Snow Depth 0.00 in    
Sea Level Pressure  
Sea Level Pressure 29.85 in    
Wind  
Wind Speed 14 mph (NW)    
Max Wind Speed 20 mph    
Max Gust Speed 29 mph    
Visibility 10 miles    
Events      
T = Trace of Precipitation, MM = Missing Value Source: NWS Daily Summary

Daily Weather History Graph

Daily Weather History Graph

Search for Another Location

Airport:

Trip Planner

Search our weather history database for the weather conditions in past years. The results will help you decide how hot, cold, wet, or windy it might be!

Date:

Astronomy

Oct. 29, 2012 Rise Set
Actual Time 7:29 AM EDT 6:45 PM EDT
Civil Twilight 7:06 AM EDT 7:09 PM EDT
Nautical Twilight 6:39 AM EDT 7:35 PM EDT
Astronomical Twilight 6:12 AM EDT 8:02 PM EDT
Moon 6:41 PM EDT (10/29) 7:16 AM EDT (10/29)
Length of Visible Light 12h 02m
Length of Day
11h 15m
Full, 100% of the Moon is Illuminated
Oct 29
Full
Oct 29
Full
Nov 6
Last Quarter
Nov 13
New
Nov 20
First Quarter

Hourly Weather History & Observations

Time (EDT) Temp. Dew Point Humidity Pressure Visibility Wind Dir Wind Speed Gust Speed Precip Events Conditions
12:53 AM 73.9 °F 55.9 °F 53% 29.82 in 10.0 mi WNW 18.4 mph 29.9 mph N/A   Mostly Cloudy
1:53 AM 73.0 °F 57.0 °F 57% 29.81 in 10.0 mi NW 13.8 mph 24.2 mph N/A   Scattered Clouds
2:53 AM 73.0 °F 55.0 °F 53% 29.81 in 10.0 mi WNW 13.8 mph 23.0 mph N/A   Scattered Clouds
3:53 AM 73.0 °F 55.9 °F 55% 29.81 in 10.0 mi NW 12.7 mph - N/A   Mostly Cloudy
4:53 AM 73.0 °F 55.9 °F 55% 29.81 in 10.0 mi WNW 12.7 mph 26.5 mph N/A   Overcast
5:53 AM 72.0 °F 55.9 °F 57% 29.82 in 10.0 mi NW 11.5 mph 24.2 mph N/A   Mostly Cloudy
6:53 AM 71.1 °F 55.0 °F 57% 29.84 in 10.0 mi NW 16.1 mph 25.3 mph N/A   Mostly Cloudy
7:53 AM 72.0 °F 55.9 °F 57% 29.86 in 10.0 mi NW 15.0 mph 24.2 mph N/A   Mostly Cloudy
8:53 AM 72.0 °F 54.0 °F 53% 29.88 in 10.0 mi NW 18.4 mph 25.3 mph N/A   Clear
9:53 AM 73.9 °F 54.0 °F 50% 29.88 in 10.0 mi NW 17.3 mph 27.6 mph N/A   Clear
10:53 AM 75.0 °F 54.0 °F 48% 29.89 in 10.0 mi NNW 16.1 mph 25.3 mph N/A   Clear
11:53 AM 75.0 °F 57.9 °F 55% 29.89 in 10.0 mi North 10.4 mph 17.3 mph N/A   Mostly Cloudy
12:53 PM 75.0 °F 53.1 °F 46% 29.88 in 10.0 mi NNW 15.0 mph 26.5 mph N/A   Partly Cloudy
1:53 PM 75.0 °F 51.1 °F 43% 29.86 in 10.0 mi NW 15.0 mph 25.3 mph N/A   Partly Cloudy
2:53 PM 73.9 °F 53.1 °F 48% 29.84 in 10.0 mi NW 10.4 mph 23.0 mph N/A   Scattered Clouds
3:53 PM 73.9 °F 53.1 °F 48% 29.84 in 10.0 mi WNW 13.8 mph 25.3 mph N/A   Partly Cloudy
4:53 PM 73.0 °F 51.1 °F 46% 29.83 in 10.0 mi WNW 13.8 mph 25.3 mph N/A   Clear
5:53 PM 71.1 °F 51.1 °F 49% 29.83 in 10.0 mi WNW 13.8 mph 21.9 mph N/A   Partly Cloudy
6:53 PM 70.0 °F 51.1 °F 51% 29.85 in 10.0 mi WNW 16.1 mph 23.0 mph N/A   Scattered Clouds
7:53 PM 70.0 °F 50.0 °F 49% 29.86 in 10.0 mi WNW 15.0 mph 25.3 mph N/A   Scattered Clouds
8:53 PM 70.0 °F 48.9 °F 47% 29.88 in 10.0 mi WNW 15.0 mph 21.9 mph N/A   Partly Cloudy
9:53 PM 70.0 °F 50.0 °F 49% 29.90 in 10.0 mi WNW 12.7 mph 27.6 mph N/A   Mostly Cloudy
10:53 PM 70.0 °F 48.9 °F 47% 29.91 in 10.0 mi WNW 13.8 mph 23.0 mph N/A   Partly Cloudy
11:53 PM 70.0 °F 51.1 °F 51% 29.90 in 10.0 mi NW 12.7 mph 21.9 mph N/A   Clear